User: anonymous   Login
Location: Unspecified
(0.0000°N, 0.0000°E)
Time: 19:03:32
(UTC+00:00)
Language:

CERISE - Orbit

View from above orbital plane
View from above orbital plane
View from above satellite
View from above satellite

Ground track
Ground track

The orbit data is extracted from the following two-line orbital elements,

1 23606U 95033B   19077.92824320 +.00000211 +00000-0 +25310-4 0  9990
2 23606 098.3354 064.9222 0005626 023.6973 336.4503 14.94823296281963
Epoch (UTC): 18 March 2019 22:16:40
Eccentricity: 0.0005626
inclination: 98.3354°
perigee height: 579 km
apogee height: 587 km
right ascension of ascending node: 64.9222°
argument of perigee: 23.6973°
revolutions per day: 14.94823296
mean anomaly at epoch: 336.4503°
orbit number at epoch: 28196

The dashed part of the orbit path shows where the satellite is in the earth's shadow,  

DLR